Zurück zum Katalog

STARLINK-31231

AktivKommunikationVLEO
NORAD 59034·PAYLOAD·🇺🇸 United States

Gestartet Feb 25, 2024 von Cape Canaveral Space Force Station

Loading…

Nächste Überflüge (nächste 24 Stunden)

TLE

AktuellSource: CelesTrak SupGP

Epoche: Sep 14, 2026, 20:46 UTC

1 59034C 24038M   26257.86576389  .00060062  00000+0  21758-2 0  2577
2 59034  43.0034  35.2313 0001401 272.8858 312.7443 15.27543612    11

Verfolge STARLINK-31231 in Echtzeit mit AllMySat

Download on the App Store